User: anonymous   Login
Location: Sungai Laei
(2.6000°N, 113.7167°E)
Time: 08:51:02
(UTC+00:00)
Language:

IRAS Rocket - Orbit

View from above orbital plane
View from above orbital plane
View from above satellite
View from above satellite

Ground track
Ground track

The orbit data is extracted from the following two-line orbital elements,

1 13778U 83004B   22222.64925753  .00000053  00000-0  61475-4 0  9997
2 13778 100.0693  90.6521 0021505 130.8005 229.5031 14.09102248 31591
Epoch (UTC): 10 August 2022 15:34:55
Eccentricity: 0.0021505
inclination: 100.0693°
perigee height: 847 km
apogee height: 878 km
right ascension of ascending node: 90.6521°
argument of perigee: 130.8005°
revolutions per day: 14.09102248
mean anomaly at epoch: 229.5031°
orbit number at epoch: 3159

The dashed part of the orbit path shows where the satellite is in the earth's shadow,  

DLR